SCP
0 0 -0 -0 -0 -0 -0 -0 -0 -0 -0 0 0 0 0 0 0 0 0 0 0 0 0 0 0 0 0 0 0 0 0 0 0 0 0 -0 -0 0 0 0 -0 -0 -0
0 0 0 -0 -0 -0 -0 -0 -0 -0 -0 0 0 0 0 0 0 0 0 0 0 0 0 0 0 0 0 0 0 0 0 0 0 0 0 -0 0 0 0 0 0 -0 -0
0 0 0 0 0 0 -0 -0 -0 -0 -0 0 0 0 0 0 0 0 0 0 0 0 0 0 0 0 0 0 0 0 0 0 0 0 -0 -0 0 0 0 0 0 0 -0
0 0 0 0 0 0 0 0 0 0 0 0 0 0 0 0 0 0 0 0 0 0 0 0 0 0 0 0 0 0 0 0 0 0 -0 -0 0 0 0 0 0 0 -0
0 0 0 0 0 0 0 0 0 0 0 0 0 0 0 0 0 0 0 0 0 0 0 0 0 0 0 0 0 0 0 0 0 0 -0 0 0 0 0 0 0 0 0
0 0 0 0 0 0 0 0 0 0 0 0 0 0 0 0 0 0 0 0 0 0 0 0 0 0 0 0 0 0 0 0 0 0 0 0 0 0 0 0 0 0 0
0 0 0 0 0 0 0 0 0 0 0 0 0 0 0 0 0 0 0 0 0 0 0 0 0 0 0 0 0 0 0 0 0 0 0 0 0 0 0 0 0 0 0
0 0 0 0 0 0 0 0 0 0 0 0 0 0 0 0 0 0 0 0 0 0 0 0 0 0 0 0 0 0 0 0 0 0 0 0 0 0 0 0 0 0 0
0 0 0 0 0 0 0 0 0 0 0 0 0 0 0 0 0 0 0 0 0 0 0 0 0 0 0 0 0 0 0 0 0 0 0 0 0 0 0 0 0 0 0
0 0 0 0 0 0 0 0 0 0 0 0 0 0 0 0 0 0 0 0 0 0 0 0 0 0 0 0 0 0 0 0 0 0 0 0 0 0 0 0 0 0 0
0 0 0 0 0 0 0 0 0 0 0 0 0 0 0 0 0 0 0 0 0 0 0 0 0 0 0 0 0 0 0 0 0 0 0 0 0 0 0 0 0 0 0
0 0 0 0 0 0 0 0 0 0 0 0 0 0 0 0 0 0 0 0 0 0 0 0 0 0 0 0 1 0 0 0 0 0 0 0 0 0 0 0 0 0 0
0 0 0 0 0 0 0 0 0 0 0 0 0 0 0 0 0 0 0 0 0 0 0 0 0 0 0 0 1 1 1 1 0 0 0 0 0 0 0 0 0 0 0
0 0 0 0 0 0 0 0 0 0 0 0 0 0 0 0 0 0 0 0 0 0 0 0 0 0 0 0 0 1 1 1 1 0 0 0 0 0 0 0 0 0 0
0 0 0 0 0 0 0 0 0 0 -0 -0 -0 0 0 0 0 0 0 0 0 0 0 0 0 0 0 0 0 0 1 1 1 1 0 0 0 0 0 0 0 0 0
0 0 0 0 0 0 0 0 0 -0 -0 -0 -0 -0 0 0 0 0 0 0 0 0 0 0 0 0 0 0 0 0 0 1 1 1 1 0 0 0 0 0 0 0 0
0 0 0 0 0 0 0 0 0 0 0 -0 0 0 0 0 0 0 0 0 0 0 0 0 0 0 0 0 0 0 0 0 1 1 1 0 0 0 0 0 0 0 0
0 0 0 0 0 0 0 0 0 0 0 0 0 0 0 0 0 0 0 0 0 0 0 0 0 0 0 0 0 0 0 0 0 1 1 1 0 0 0 0 0 0 0
0 0 0 0 0 0 0 0 0 0 0 0 0 0 0 0 0 0 0 0 0 0 0 0 0 0 0 0 0 0 0 0 0 0 1 1 0 0 0 0 0 0 0
0 0 0 0 0 0 0 0 0 0 0 0 0 0 0 0 0 0 0 0 0 0 0 0 0 0 0 0 0 0 0 0 0 0 0 1 0 0 0 0 0 0 0
0 0 0 0 0 0 0 0 0 0 0 0 0 0 0 0 0 0 0 0 0 0 0 0 0 0 0 0 0 0 0 0 0 0 0 0 0 0 0 0 0 0 0
0 0 0 0 0 0 0 0 0 0 0 0 0 0 0 0 0 0 0 0 0 0 0 0 0 0 0 0 0 0 0 0 0 0 0 0 0 0 0 0 0 0 0
0 0 0 0 0 0 0 0 0 0 0 0 0 0 0 0 0 0 0 0 0 0 0 0 0 0 0 0 0 0 0 0 0 0 0 0 0 0 0 0 0 0 0
0 0 0 0 0 0 0 0 0 0 0 0 0 0 0 0 0 0 0 0 0 0 0 0 0 0 0 0 0 0 0 0 0 0 1 1 1 1 0 0 0 0 0
0 0 0 0 0 0 0 0 0 0 0 0 0 0 0 0 0 0 0 0 0 0 0 0 0 0 0 0 0 0 0 0 0 0 0 0 1 1 0 0 0 0 0
0 0 0 0 0 0 0 0 0 0 0 0 0 0 0 0 0 0 0 0 0 0 0 0 0 0 0 0 0 0 0 0 0 0 0 0 0 0 1 0 0 0 0
Wind_Speed_500mb
15 14 15 14 12 7 2 1 3 6 9 11 12 12 8 5 6 7 8 8 9 9 10 12 13 16 17 20 19 20 20 17 17 15 18 24 25 18 12 29 34 18 26
17 15 15 17 16 13 3 3 8 7 8 6 10 12 13 13 12 12 12 13 13 14 14 17 18 18 21 22 23 23 21 20 17 19 23 26 22 12 22 35 36 19 27
18 18 14 18 17 17 12 10 1 7 11 13 15 14 16 17 19 18 17 18 18 19 21 23 22 22 24 25 26 25 23 21 24 24 22 13 17 13 30 36 33 28 28
18 12 13 14 14 14 14 11 10 3 9 14 17 19 20 21 23 25 25 24 23 20 25 27 27 27 28 28 29 29 27 29 28 27 20 7 12 20 33 35 30 33 29
14 9 9 11 14 15 13 13 13 12 9 8 14 20 22 24 27 27 28 29 28 24 25 27 29 29 32 31 31 32 34 32 31 30 16 19 18 22 36 36 32 29 30
10 4 3 8 12 16 20 22 20 18 17 17 16 16 20 25 28 30 32 33 34 30 29 31 30 32 34 36 35 37 36 34 33 32 19 22 26 29 40 40 35 29 34
7 2 6 10 15 19 21 23 26 27 28 27 27 26 25 25 28 34 36 36 35 37 35 34 35 35 37 39 38 37 36 36 35 27 24 27 31 40 47 45 38 30 41
5 7 13 15 18 19 20 22 25 29 31 31 33 34 35 34 33 32 35 38 41 43 41 40 41 42 43 42 40 37 37 35 37 29 30 31 34 41 54 52 44 37 42
9 11 13 16 16 16 14 16 19 24 31 36 37 37 39 41 42 42 39 40 44 47 49 48 47 48 49 48 46 43 42 36 38 35 31 32 31 41 53 55 49 42 45
13 13 14 15 15 15 18 21 25 26 28 33 41 45 45 46 46 47 49 50 47 49 56 55 55 54 55 54 51 49 47 41 43 40 37 36 35 33 54 59 51 49 48
16 16 14 13 15 18 23 26 30 34 38 42 43 43 45 49 52 51 50 52 55 56 57 60 63 63 61 60 58 57 51 52 51 51 51 43 37 33 54 64 53 51 52
12 11 14 18 20 22 24 28 32 38 43 49 52 53 52 52 52 56 57 54 55 60 63 63 63 67 68 67 65 63 63 60 61 58 59 52 38 37 53 68 61 53 53
18 20 22 24 26 28 30 32 36 43 50 56 60 60 57 55 55 56 57 59 59 57 60 65 69 68 70 71 71 68 69 71 71 67 63 63 44 43 49 71 66 56 53
21 22 25 28 29 30 30 33 39 47 54 61 64 61 60 57 56 56 58 59 59 60 59 60 66 70 72 72 71 71 73 73 77 76 74 71 56 47 48 70 68 61 58
24 26 27 32 32 33 33 37 44 51 58 66 66 63 61 60 59 58 58 59 59 59 61 61 60 64 73 76 76 79 75 76 77 81 84 76 72 58 54 64 75 67 61
29 36 37 36 34 33 37 42 48 54 60 65 64 63 62 61 59 57 57 58 58 57 58 60 61 60 66 74 81 81 85 73 80 82 83 88 80 70 65 59 75 81 68
29 35 35 33 34 35 40 46 52 58 64 66 65 63 61 59 59 59 59 58 56 56 58 61 63 64 68 71 80 82 82 88 79 87 88 93 84 80 74 70 66 84 86
31 33 34 34 36 39 43 50 57 62 66 63 63 64 63 60 60 61 59 58 55 54 54 55 55 60 62 63 69 80 87 90 98 77 87 93 97 86 86 78 75 75 86
32 33 35 37 37 42 49 56 61 65 65 63 63 64 63 63 61 61 59 55 54 53 52 51 50 50 56 60 62 61 77 91 92 99 83 93 102 98 91 89 84 79 82
35 37 37 36 40 47 54 58 64 66 62 61 64 64 66 67 63 61 60 56 51 54 51 49 48 50 52 52 48 52 55 76 98 94 112 88 99 96 96 93 93 90 86
34 36 37 39 44 50 55 61 67 66 64 64 63 63 64 66 64 59 54 49 47 61 54 43 42 44 47 46 50 59 70 70 73 107 101 124 86 112 99 94 103 98 93
30 34 39 44 47 51 57 63 67 66 65 64 64 61 59 62 62 59 54 53 47 47 49 49 46 45 48 40 44 39 42 46 79 89 105 116 95 84 107 101 106 107 102
30 36 42 47 51 55 59 65 64 61 60 50 48 52 63 63 62 60 61 60 59 56 56 53 49 50 49 44 42 42 22 34 34 55 83 103 111 85 97 95 105 100 113
35 39 49 53 56 58 61 64 60 62 64 55 61 63 65 64 59 55 55 54 49 50 52 52 49 51 55 56 46 50 64 63 22 21 50 65 73 99 117 95 96 99 95
42 51 55 57 58 59 63 60 60 60 60 62 60 60 56 57 51 48 49 47 48 50 54 54 52 55 54 55 58 51 53 59 74 68 52 33 56 70 85 99 100 88 92
41 46 49 51 54 57 58 57 58 57 61 65 64 59 56 47 43 43 42 43 44 44 46 47 45 44 49 56 66 66 63 57 50 53 67 72 45 53 73 86 91 98 99
Wind_Direction_500mb
53 35 44 50 50 43 45 205 206 205 194 192 184 174 180 202 217 234 249 253 248 241 247 254 250 245 238 235 233 233 234 247 267 284 305 314 318 313 186 168 150 146 176
83 48 58 59 57 55 14 240 212 225 241 255 240 228 217 225 228 236 246 257 261 258 251 249 254 248 243 234 236 243 249 258 271 285 302 309 302 278 182 171 156 172 183
85 66 61 62 59 63 66 57 2 243 236 250 267 270 267 261 255 246 242 246 249 259 258 254 249 249 244 239 239 243 248 259 274 284 297 323 306 221 180 175 174 179 182
98 84 60 42 45 44 43 35 34 8 265 267 263 259 259 256 256 262 263 257 245 249 263 257 252 250 243 245 249 249 252 264 268 278 290 243 228 223 191 186 188 183 187
111 98 58 29 10 3 0 357 351 347 338 307 289 283 273 267 262 260 258 258 256 245 248 254 257 253 249 248 249 253 258 260 264 270 267 241 216 237 205 194 196 201 197
136 127 30 351 340 334 332 330 327 322 318 313 306 293 286 276 270 266 261 256 251 251 253 248 243 248 252 251 256 260 258 259 262 264 242 241 227 227 216 204 202 202 196
162 270 321 325 322 323 323 321 318 314 313 312 306 298 292 287 282 273 264 260 257 252 248 250 245 243 248 253 260 260 257 262 257 249 239 232 250 214 214 209 205 203 197
218 290 306 309 311 313 316 318 320 318 314 309 307 302 295 289 281 276 276 266 257 255 254 250 246 244 244 251 254 256 261 262 254 237 241 238 235 230 215 209 210 207 201
236 272 291 305 310 311 312 316 316 318 319 319 316 311 306 297 288 283 274 271 262 258 255 253 252 251 247 247 251 254 254 257 250 243 236 240 243 237 216 210 213 212 208
253 275 293 297 299 302 308 316 320 320 321 320 320 316 311 306 299 289 282 274 269 264 258 256 252 252 253 250 248 249 249 253 248 234 236 235 238 242 214 210 216 215 213
255 266 278 287 297 302 306 310 315 320 324 327 324 316 311 305 301 295 289 280 273 267 262 258 254 252 250 251 249 247 247 245 244 241 233 241 240 234 217 213 217 218 216
216 249 281 297 303 308 309 313 320 327 330 330 326 323 316 309 300 294 290 285 278 271 266 261 257 253 251 249 249 247 243 242 244 240 237 242 240 233 222 217 218 221 220
222 248 269 285 299 309 315 318 324 327 327 327 326 323 318 311 305 297 289 284 281 275 270 265 261 256 251 251 249 248 246 241 241 242 236 241 234 231 224 218 221 226 224
230 244 274 287 293 298 304 310 318 323 327 329 329 324 319 313 305 299 293 287 280 276 272 266 263 261 256 249 244 248 246 245 240 241 241 235 235 233 227 220 224 228 226
229 250 268 280 282 291 300 308 318 326 330 332 331 327 321 314 307 298 291 286 282 278 272 268 263 260 259 254 247 240 245 245 243 242 243 239 239 231 230 227 225 227 225
239 250 260 271 279 294 304 313 322 327 327 327 327 326 321 314 308 301 291 285 281 277 273 268 264 259 255 256 252 246 240 241 245 243 242 244 239 234 231 229 229 227 226
234 246 260 273 282 292 302 313 319 320 320 320 321 323 320 313 307 301 296 288 280 277 273 270 267 264 262 257 254 251 249 242 240 244 242 245 241 236 232 231 232 231 229
225 247 261 269 280 294 306 312 313 314 316 315 316 318 320 314 306 300 294 288 284 276 273 271 268 265 261 259 258 252 246 246 242 245 245 241 246 235 233 231 231 232 231
231 243 260 269 286 299 306 309 311 313 313 313 314 315 315 312 305 298 292 285 280 277 273 268 266 264 262 261 259 257 253 242 247 242 242 241 240 244 233 233 230 231 232
235 246 258 274 287 297 304 309 312 311 310 309 309 309 310 310 304 296 289 282 279 274 270 271 270 265 262 259 262 259 261 258 242 243 241 241 234 242 240 233 231 229 230
238 251 263 277 289 298 305 311 311 308 305 303 304 304 305 307 301 294 288 279 269 270 270 261 266 268 270 267 268 266 258 245 256 244 246 244 241 233 241 236 233 232 231
245 261 274 282 290 299 305 309 306 304 302 302 304 305 305 305 298 290 285 280 275 274 273 271 258 258 264 261 258 266 271 271 254 249 244 246 255 242 243 251 238 234 232
262 271 278 284 292 296 302 306 304 301 303 298 296 290 296 296 290 284 280 273 265 262 266 266 264 253 256 260 251 245 256 243 274 253 251 248 244 239 235 243 247 238 234
273 276 280 286 289 294 300 302 301 300 299 298 296 297 296 295 288 279 275 277 274 269 269 267 268 265 252 255 253 249 248 255 296 269 238 246 246 242 243 240 253 238 237
278 279 281 282 285 292 299 300 300 298 298 299 296 295 293 290 286 282 278 274 268 266 266 268 265 258 253 251 251 255 256 257 255 259 274 253 238 238 238 242 240 241 242
290 286 283 282 286 293 297 300 299 298 300 299 299 294 291 290 285 279 278 276 276 272 268 267 269 266 261 256 254 250 252 254 253 253 250 256 260 245 239 239 245 249 247
Wind_Speed_850mb
15 14 15 14 12 7 2 1 3 6 9 11 12 12 8 5 6 7 8 8 9 9 10 12 13 16 17 20 19 20 20 17 17 15 18 24 25 18 12 29 34 18 26
17 15 15 17 16 13 3 3 8 7 8 6 10 12 13 13 12 12 12 13 13 14 14 17 18 18 21 22 23 23 21 20 17 19 23 26 22 12 22 35 36 19 27
18 18 14 18 17 17 12 10 1 7 11 13 15 14 16 17 19 18 17 18 18 19 21 23 22 22 24 25 26 25 23 21 24 24 22 13 17 13 30 36 33 28 28
18 12 13 14 14 14 14 11 10 3 9 14 17 19 20 21 23 25 25 24 23 20 25 27 27 27 28 28 29 29 27 29 28 27 20 7 12 20 33 35 30 33 29
14 9 9 11 14 15 13 13 13 12 9 8 14 20 22 24 27 27 28 29 28 24 25 27 29 29 32 31 31 32 34 32 31 30 16 19 18 22 36 36 32 29 30
10 4 3 8 12 16 20 22 20 18 17 17 16 16 20 25 28 30 32 33 34 30 29 31 30 32 34 36 35 37 36 34 33 32 19 22 26 29 40 40 35 29 34
7 2 6 10 15 19 21 23 26 27 28 27 27 26 25 25 28 34 36 36 35 37 35 34 35 35 37 39 38 37 36 36 35 27 24 27 31 40 47 45 38 30 41
5 7 13 15 18 19 20 22 25 29 31 31 33 34 35 34 33 32 35 38 41 43 41 40 41 42 43 42 40 37 37 35 37 29 30 31 34 41 54 52 44 37 42
9 11 13 16 16 16 14 16 19 24 31 36 37 37 39 41 42 42 39 40 44 47 49 48 47 48 49 48 46 43 42 36 38 35 31 32 31 41 53 55 49 42 45
13 13 14 15 15 15 18 21 25 26 28 33 41 45 45 46 46 47 49 50 47 49 56 55 55 54 55 54 51 49 47 41 43 40 37 36 35 33 54 59 51 49 48
16 16 14 13 15 18 23 26 30 34 38 42 43 43 45 49 52 51 50 52 55 56 57 60 63 63 61 60 58 57 51 52 51 51 51 43 37 33 54 64 53 51 52
12 11 14 18 20 22 24 28 32 38 43 49 52 53 52 52 52 56 57 54 55 60 63 63 63 67 68 67 65 63 63 60 61 58 59 52 38 37 53 68 61 53 53
18 20 22 24 26 28 30 32 36 43 50 56 60 60 57 55 55 56 57 59 59 57 60 65 69 68 70 71 71 68 69 71 71 67 63 63 44 43 49 71 66 56 53
21 22 25 28 29 30 30 33 39 47 54 61 64 61 60 57 56 56 58 59 59 60 59 60 66 70 72 72 71 71 73 73 77 76 74 71 56 47 48 70 68 61 58
24 26 27 32 32 33 33 37 44 51 58 66 66 63 61 60 59 58 58 59 59 59 61 61 60 64 73 76 76 79 75 76 77 81 84 76 72 58 54 64 75 67 61
29 36 37 36 34 33 37 42 48 54 60 65 64 63 62 61 59 57 57 58 58 57 58 60 61 60 66 74 81 81 85 73 80 82 83 88 80 70 65 59 75 81 68
29 35 35 33 34 35 40 46 52 58 64 66 65 63 61 59 59 59 59 58 56 56 58 61 63 64 68 71 80 82 82 88 79 87 88 93 84 80 74 70 66 84 86
31 33 34 34 36 39 43 50 57 62 66 63 63 64 63 60 60 61 59 58 55 54 54 55 55 60 62 63 69 80 87 90 98 77 87 93 97 86 86 78 75 75 86
32 33 35 37 37 42 49 56 61 65 65 63 63 64 63 63 61 61 59 55 54 53 52 51 50 50 56 60 62 61 77 91 92 99 83 93 102 98 91 89 84 79 82
35 37 37 36 40 47 54 58 64 66 62 61 64 64 66 67 63 61 60 56 51 54 51 49 48 50 52 52 48 52 55 76 98 94 112 88 99 96 96 93 93 90 86
34 36 37 39 44 50 55 61 67 66 64 64 63 63 64 66 64 59 54 49 47 61 54 43 42 44 47 46 50 59 70 70 73 107 101 124 86 112 99 94 103 98 93
30 34 39 44 47 51 57 63 67 66 65 64 64 61 59 62 62 59 54 53 47 47 49 49 46 45 48 40 44 39 42 46 79 89 105 116 95 84 107 101 106 107 102
30 36 42 47 51 55 59 65 64 61 60 50 48 52 63 63 62 60 61 60 59 56 56 53 49 50 49 44 42 42 22 34 34 55 83 103 111 85 97 95 105 100 113
35 39 49 53 56 58 61 64 60 62 64 55 61 63 65 64 59 55 55 54 49 50 52 52 49 51 55 56 46 50 64 63 22 21 50 65 73 99 117 95 96 99 95
42 51 55 57 58 59 63 60 60 60 60 62 60 60 56 57 51 48 49 47 48 50 54 54 52 55 54 55 58 51 53 59 74 68 52 33 56 70 85 99 100 88 92
41 46 49 51 54 57 58 57 58 57 61 65 64 59 56 47 43 43 42 43 44 44 46 47 45 44 49 56 66 66 63 57 50 53 67 72 45 53 73 86 91 98 99
Wind_Direction_850mb
53 35 44 50 50 43 45 205 206 205 194 192 184 174 180 202 217 234 249 253 248 241 247 254 250 245 238 235 233 233 234 247 267 284 305 314 318 313 186 168 150 146 176
83 48 58 59 57 55 14 240 212 225 241 255 240 228 217 225 228 236 246 257 261 258 251 249 254 248 243 234 236 243 249 258 271 285 302 309 302 278 182 171 156 172 183
85 66 61 62 59 63 66 57 2 243 236 250 267 270 267 261 255 246 242 246 249 259 258 254 249 249 244 239 239 243 248 259 274 284 297 323 306 221 180 175 174 179 182
98 84 60 42 45 44 43 35 34 8 265 267 263 259 259 256 256 262 263 257 245 249 263 257 252 250 243 245 249 249 252 264 268 278 290 243 228 223 191 186 188 183 187
111 98 58 29 10 3 0 357 351 347 338 307 289 283 273 267 262 260 258 258 256 245 248 254 257 253 249 248 249 253 258 260 264 270 267 241 216 237 205 194 196 201 197
136 127 30 351 340 334 332 330 327 322 318 313 306 293 286 276 270 266 261 256 251 251 253 248 243 248 252 251 256 260 258 259 262 264 242 241 227 227 216 204 202 202 196
162 270 321 325 322 323 323 321 318 314 313 312 306 298 292 287 282 273 264 260 257 252 248 250 245 243 248 253 260 260 257 262 257 249 239 232 250 214 214 209 205 203 197
218 290 306 309 311 313 316 318 320 318 314 309 307 302 295 289 281 276 276 266 257 255 254 250 246 244 244 251 254 256 261 262 254 237 241 238 235 230 215 209 210 207 201
236 272 291 305 310 311 312 316 316 318 319 319 316 311 306 297 288 283 274 271 262 258 255 253 252 251 247 247 251 254 254 257 250 243 236 240 243 237 216 210 213 212 208
253 275 293 297 299 302 308 316 320 320 321 320 320 316 311 306 299 289 282 274 269 264 258 256 252 252 253 250 248 249 249 253 248 234 236 235 238 242 214 210 216 215 213
255 266 278 287 297 302 306 310 315 320 324 327 324 316 311 305 301 295 289 280 273 267 262 258 254 252 250 251 249 247 247 245 244 241 233 241 240 234 217 213 217 218 216
216 249 281 297 303 308 309 313 320 327 330 330 326 323 316 309 300 294 290 285 278 271 266 261 257 253 251 249 249 247 243 242 244 240 237 242 240 233 222 217 218 221 220
222 248 269 285 299 309 315 318 324 327 327 327 326 323 318 311 305 297 289 284 281 275 270 265 261 256 251 251 249 248 246 241 241 242 236 241 234 231 224 218 221 226 224
230 244 274 287 293 298 304 310 318 323 327 329 329 324 319 313 305 299 293 287 280 276 272 266 263 261 256 249 244 248 246 245 240 241 241 235 235 233 227 220 224 228 226
229 250 268 280 282 291 300 308 318 326 330 332 331 327 321 314 307 298 291 286 282 278 272 268 263 260 259 254 247 240 245 245 243 242 243 239 239 231 230 227 225 227 225
239 250 260 271 279 294 304 313 322 327 327 327 327 326 321 314 308 301 291 285 281 277 273 268 264 259 255 256 252 246 240 241 245 243 242 244 239 234 231 229 229 227 226
234 246 260 273 282 292 302 313 319 320 320 320 321 323 320 313 307 301 296 288 280 277 273 270 267 264 262 257 254 251 249 242 240 244 242 245 241 236 232 231 232 231 229
225 247 261 269 280 294 306 312 313 314 316 315 316 318 320 314 306 300 294 288 284 276 273 271 268 265 261 259 258 252 246 246 242 245 245 241 246 235 233 231 231 232 231
231 243 260 269 286 299 306 309 311 313 313 313 314 315 315 312 305 298 292 285 280 277 273 268 266 264 262 261 259 257 253 242 247 242 242 241 240 244 233 233 230 231 232
235 246 258 274 287 297 304 309 312 311 310 309 309 309 310 310 304 296 289 282 279 274 270 271 270 265 262 259 262 259 261 258 242 243 241 241 234 242 240 233 231 229 230
238 251 263 277 289 298 305 311 311 308 305 303 304 304 305 307 301 294 288 279 269 270 270 261 266 268 270 267 268 266 258 245 256 244 246 244 241 233 241 236 233 232 231
245 261 274 282 290 299 305 309 306 304 302 302 304 305 305 305 298 290 285 280 275 274 273 271 258 258 264 261 258 266 271 271 254 249 244 246 255 242 243 251 238 234 232
262 271 278 284 292 296 302 306 304 301 303 298 296 290 296 296 290 284 280 273 265 262 266 266 264 253 256 260 251 245 256 243 274 253 251 248 244 239 235 243 247 238 234
273 276 280 286 289 294 300 302 301 300 299 298 296 297 296 295 288 279 275 277 274 269 269 267 268 265 252 255 253 249 248 255 296 269 238 246 246 242 243 240 253 238 237
278 279 281 282 285 292 299 300 300 298 298 299 296 295 293 290 286 282 278 274 268 266 266 268 265 258 253 251 251 255 256 257 255 259 274 253 238 238 238 242 240 241 242
290 286 283 282 286 293 297 300 299 298 300 299 299 294 291 290 285 279 278 276 276 272 268 267 269 266 261 256 254 250 252 254 253 253 250 256 260 245 239 239 245 249 247